Location: Pedholt
(56.0260°N, 10.2097°E)
Time: 06:26:13
(UTC+00:00)

Okean 1 - Pass Details

Date: 14 July 2020
Orbit: 538 x 555 km, 82.5° (Epoch: 14 August)

Event Time Altitude Azimuth Distance (km) Brightness Sun altitude
Rises 00:14:02 0° 347° (NNW) 2,712 8.2 -11.6°
Reaches altitude 10° 00:16:12 10° 348° (NNW) 1,815 7.1 -11.6°
Maximum altitude 00:20:12 90° 245° (WSW) 549 3.3 -11.5°
Enters shadow 00:23:30 15° 169° (S) 1,534 5.0 -11.4°
